When you browse on this site, cookies collect data to enhance your experience and personalize the content and advertising you see.
Visit our Privacy Policy to learn more. By continuing to use the site, you agree to this use of cookies and data.
  • En España
  • Lista de países
  • Para 7 días
  • Temperatura del agua
  • Mapa Satelital
  • El tiempo en el mapa
  • Informadores
  • user-avatar
    Iniciar sesión

    Tiempo cada hora Caipan

    Hoy, 19 Abril, Viernes

    Tiempo Temperatura Precipitaciones Viento Presión Humedad
    00:00 +24°C° 0.5 mm 3 mps 668 mmHg 84%
    01:00 +22°C° 0.1 mm 3 mps 668 mmHg 83%
    02:00 +21°C° 0.1 mm 3 mps 668 mmHg 81%
    03:00 +20°C° 0.1 mm 3 mps 668 mmHg 80%
    04:00 +19°C° 0 mm 3 mps 668 mmHg 78%
    05:00 +18°C° 0 mm 3 mps 668 mmHg 77%
    06:00 +17°C° 0 mm 2 mps 668 mmHg 75%
    07:00 +19°C° 0 mm 3 mps 669 mmHg 66%
    08:00 +20°C° 0 mm 3 mps 670 mmHg 57%
    09:00 +22°C° 0 mm 3 mps 670 mmHg 48%
    10:00 +25°C° 0 mm 4 mps 671 mmHg 44%
    11:00 +26°C° 0 mm 4 mps 671 mmHg 41%
    12:00 +28°C° 0 mm 5 mps 671 mmHg 38%
    13:00 +28°C° 0 mm 5 mps 670 mmHg 38%
    14:00 +28°C° 0 mm 5 mps 670 mmHg 38%
    15:00 +28°C° 0 mm 5 mps 669 mmHg 38%
    16:00 +27°C° 0 mm 5 mps 669 mmHg 40%
    17:00 +25°C° 0 mm 5 mps 669 mmHg 42%
    18:00 +23°C° 0 mm 5 mps 669 mmHg 45%
    19:00 +21°C° 0 mm 4 mps 669 mmHg 47%
    20:00 +19°C° 0 mm 3 mps 670 mmHg 50%
    21:00 +17°C° 0 mm 2 mps 670 mmHg 52%
    22:00 +17°C° 0 mm 2 mps 670 mmHg 52%
    23:00 +16°C° 0 mm 2 mps 670 mmHg 53%

    Mañana, 20 Abril, Sábado

    Tiempo Temperatura Precipitaciones Viento Presión Humedad
    00:00 +16°C° 0 mm 2 mps 670 mmHg 53%
    01:00 +15°C° 0 mm 2 mps 670 mmHg 53%
    02:00 +15°C° 0 mm 2 mps 670 mmHg 52%
    03:00 +15°C° 0 mm 1 mps 669 mmHg 51%
    04:00 +15°C° 0 mm 1 mps 669 mmHg 48%
    05:00 +14°C° 0 mm 1 mps 669 mmHg 45%
    06:00 +14°C° 0 mm 1 mps 669 mmHg 41%
    07:00 +17°C° 0 mm 2 mps 670 mmHg 34%
    08:00 +20°C° 0 mm 2 mps 671 mmHg 27%
    09:00 +24°C° 0 mm 2 mps 672 mmHg 20%
    10:00 +25°C° 0 mm 3 mps 672 mmHg 20%
    11:00 +27°C° 0 mm 3 mps 672 mmHg 19%
    12:00 +29°C° 0 mm 3 mps 672 mmHg 18%
    13:00 +29°C° 0 mm 4 mps 671 mmHg 18%
    14:00 +29°C° 0 mm 4 mps 670 mmHg 18%
    15:00 +30°C° 0 mm 4 mps 670 mmHg 19%
    16:00 +28°C° 0 mm 4 mps 669 mmHg 21%
    17:00 +27°C° 0 mm 3 mps 669 mmHg 24%
    18:00 +26°C° 0 mm 3 mps 668 mmHg 27%
    19:00 +22°C° 0 mm 3 mps 669 mmHg 33%
    20:00 +20°C° 0 mm 2 mps 669 mmHg 38%
    21:00 +18°C° 0 mm 2 mps 669 mmHg 44%
    22:00 +19°C° 0 mm 1 mps 669 mmHg 47%
    23:00 +18°C° 0 mm 1 mps 669 mmHg 49%

    Pasado mañana, 21 Abril, Domingo

    Tiempo Temperatura Precipitaciones Viento Presión Humedad
    00:00 +18°C° 0 mm 1 mps 669 mmHg 51%
    01:00 +16°C° 0 mm 1 mps 669 mmHg 53%
    02:00 +16°C° 0 mm 1 mps 668 mmHg 54%
    03:00 +16°C° 0 mm 1 mps 668 mmHg 55%
    04:00 +16°C° 0 mm 1 mps 668 mmHg 54%
    05:00 +16°C° 0 mm 1 mps 668 mmHg 53%
    06:00 +16°C° 0 mm 1 mps 668 mmHg 53%
    07:00 +21°C° 0 mm 1 mps 669 mmHg 45%
    08:00 +24°C° 0 mm 1 mps 670 mmHg 38%
    09:00 +26°C° 0 mm 0 mps 671 mmHg 30%
    10:00 +30°C° 0 mm 1 mps 671 mmHg 28%
    11:00 +32°C° 0 mm 1 mps 671 mmHg 26%
    12:00 +34°C° 0 mm 1 mps 671 mmHg 24%
    13:00 +35°C° 0 mm 2 mps 670 mmHg 24%
    14:00 +35°C° 0 mm 2 mps 669 mmHg 24%
    15:00 +35°C° 0 mm 3 mps 669 mmHg 24%
    16:00 +33°C° 0 mm 3 mps 668 mmHg 29%
    17:00 +30°C° 0 mm 4 mps 668 mmHg 35%
    18:00 +28°C° 0 mm 4 mps 667 mmHg 41%
    19:00 +26°C° 0 mm 3 mps 668 mmHg 47%
    20:00 +24°C° 0 mm 2 mps 668 mmHg 53%
    21:00 +22°C° 0 mm 1 mps 668 mmHg 59%
    22:00 +21°C° 0 mm 1 mps 668 mmHg 59%
    23:00 +21°C° 0 mm 1 mps 668 mmHg 60%

    22 Abril, Lunes

    Tiempo Temperatura Precipitaciones Viento Presión Humedad
    00:00 +20°C° 0 mm 1 mps 668 mmHg 61%
    01:00 +20°C° 0 mm 1 mps 668 mmHg 62%
    02:00 +20°C° 0 mm 1 mps 667 mmHg 62%
    03:00 +19°C° 0 mm 1 mps 667 mmHg 62%
    04:00 +19°C° 0 mm 1 mps 667 mmHg 61%
    05:00 +19°C° 0 mm 1 mps 667 mmHg 60%
    06:00 +19°C° 0 mm 1 mps 667 mmHg 59%
    07:00 +23°C° 0 mm 1 mps 668 mmHg 49%
    08:00 +24°C° 0 mm 0 mps 669 mmHg 38%
    09:00 +28°C° 0 mm 0 mps 670 mmHg 28%
    10:00 +31°C° 0 mm 1 mps 670 mmHg 25%
    11:00 +33°C° 0 mm 1 mps 670 mmHg 22%
    12:00 +36°C° 0 mm 2 mps 670 mmHg 19%
    13:00 +36°C° 0 mm 3 mps 669 mmHg 20%
    14:00 +36°C° 0 mm 3 mps 668 mmHg 20%
    15:00 +36°C° 0 mm 4 mps 667 mmHg 21%
    16:00 +34°C° 0 mm 4 mps 667 mmHg 26%
    17:00 +32°C° 0 mm 4 mps 667 mmHg 31%
    18:00 +29°C° 0 mm 4 mps 666 mmHg 36%
    19:00 +27°C° 0 mm 3 mps 667 mmHg 44%
    20:00 +24°C° 0 mm 2 mps 667 mmHg 52%
    21:00 +21°C° 0 mm 2 mps 667 mmHg 60%
    22:00 +21°C° 0 mm 1 mps 667 mmHg 63%
    23:00 +21°C° 0 mm 1 mps 667 mmHg 66%

    23 Abril, Martes

    Tiempo Temperatura Precipitaciones Viento Presión Humedad
    00:00 +20°C° 0 mm 1 mps 667 mmHg 69%
    01:00 +20°C° 0 mm 1 mps 667 mmHg 69%
    02:00 +19°C° 0 mm 1 mps 666 mmHg 69%
    03:00 +19°C° 0 mm 1 mps 666 mmHg 69%
    04:00 +19°C° 0 mm 1 mps 666 mmHg 68%
    05:00 +19°C° 0 mm 1 mps 666 mmHg 66%
    06:00 +18°C° 0 mm 1 mps 666 mmHg 64%
    07:00 +22°C° 0 mm 1 mps 667 mmHg 51%
    08:00 +26°C° 0 mm 1 mps 668 mmHg 38%
    09:00 +28°C° 0 mm 0 mps 670 mmHg 25%
    10:00 +32°C° 0 mm 1 mps 669 mmHg 22%
    11:00 +33°C° 0 mm 1 mps 669 mmHg 18%
    12:00 +36°C° 0 mm 2 mps 669 mmHg 15%
    13:00 +36°C° 0 mm 3 mps 668 mmHg 16%
    14:00 +36°C° 0 mm 3 mps 668 mmHg 18%
    15:00 +36°C° 0 mm 4 mps 667 mmHg 19%
    16:00 +35°C° 0 mm 4 mps 667 mmHg 24%
    17:00 +33°C° 0 mm 3 mps 666 mmHg 28%
    18:00 +30°C° 0 mm 3 mps 666 mmHg 33%
    19:00 +28°C° 0 mm 3 mps 666 mmHg 42%
    20:00 +25°C° 0 mm 2 mps 666 mmHg 50%
    21:00 +22°C° 0 mm 1 mps 667 mmHg 58%
    22:00 +22°C° 0 mm 1 mps 667 mmHg 62%
    23:00 +21°C° 0 mm 1 mps 667 mmHg 66%

    24 Abril, Miércoles

    Tiempo Temperatura Precipitaciones Viento Presión Humedad
    00:00 +21°C° 0 mm 1 mps 667 mmHg 69%
    01:00 +20°C° 0 mm 1 mps 666 mmHg 69%
    02:00 +20°C° 0 mm 1 mps 666 mmHg 68%
    03:00 +20°C° 0 mm 1 mps 666 mmHg 68%
    04:00 +20°C° 0 mm 1 mps 666 mmHg 65%
    05:00 +20°C° 0 mm 1 mps 666 mmHg 63%
    06:00 +19°C° 0 mm 1 mps 666 mmHg 60%
    07:00 +23°C° 0 mm 1 mps 667 mmHg 51%
    08:00 +27°C° 0 mm 1 mps 668 mmHg 41%
    09:00 +30°C° 0 mm 1 mps 669 mmHg 32%
    10:00 +32°C° 0 mm 1 mps 669 mmHg 28%
    11:00 +34°C° 0 mm 1 mps 669 mmHg 25%
    12:00 +36°C° 0 mm 1 mps 669 mmHg 22%
    13:00 +37°C° 0 mm 2 mps 668 mmHg 22%
    14:00 +37°C° 0 mm 3 mps 667 mmHg 23%
    15:00 +37°C° 0 mm 4 mps 667 mmHg 24%
    16:00 +35°C° 0 mm 4 mps 666 mmHg 30%
    17:00 +33°C° 0 mm 4 mps 666 mmHg 36%
    18:00 +32°C° 0 mm 4 mps 665 mmHg 43%
    19:00 +28°C° 0 mm 3 mps 666 mmHg 53%
    20:00 +26°C° 0 mm 2 mps 666 mmHg 64%
    21:00 +23°C° 0 mm 1 mps 666 mmHg 75%
    22:00 +23°C° 0 mm 1 mps 666 mmHg 77%
    23:00 +23°C° 0 mm 1 mps 666 mmHg 80%
    Mostrar más